STARLINK-11289, 60991

Orbit data source: Space-Track

STARLINK-11289, 60991 is a payload satellite owned by SpaceX/Seattle (US) in LEO that was launched on Thu, 05 Sep 2024 UTC via an FALCON 9 launch vehicle from the Air Force Eastern Test Range (AFETR). Payload-class satellites include a variety of spacecraft equipped with specific instruments for various scientific and technological missions. These include communications satellites like Starlink; space stations such as the ISS; scientific satellites like the Hubble; Earth observation satellites from companies like Planet Labs, Umbra, and HawkEye 360; GPS; miniature CubeSats for education and research; and military/defense satellites.

Loading next visibility...
Identifier
60991, 2024-158B
Orbit
LEO
Country
Flag of USUS
Related business
Manufacturer
SpaceX/Seattle
Mission
Operational Commercial Communications
Bus & Motor
STARLINK V2MD, Unknown motor
Mass
960 kg wet, ~910 kg dry
Launch date (UTC)
2024-09-05 (2 years ago)
Launch vehicle
FALCON 9
Launch site
Air Force Eastern Test Range (AFETR)
Object type
Payload
Rocket body
Debris
Shape & HBR
Box + 2 Pan, 18.1 m
Radar Cross Section
36.964 m², Large (>1 m²)

Expand to show TLE details & history
Last TLE update: 14 hours ago

TLE from 14 hours ago
0 STARLINK-11289
1 60991U 24158B   26124.69413147 -.00001358  00000-0 -63547-5 0  9994
2 60991  53.1578   4.9733 0000975  88.3092 271.8037 15.69706848 96392
Epoch: 2026-05-04T16:39Z
TLE epoch observation values (Epoch: 2026-05-04T16:39:32.959Z)
Latitude
-0.00009°
Longitude
-107.49375°
Altitude
360.63 km
Speed
7.694 km/s
True Right ascension
00h 19m 53s
True Declination
0° 00' 00"
Sunlit
Object was in daylight at epoch
Visualization orbit readout
Latitude
Unknown
Longitude
Unknown
Altitude
Unknown
Speed
Unknown
Apparent Right ascension
Unknown
Apparent Declination
Unknown
Sunlit
N/A
Visualization observer readout
Local Sidereal Time
14:28:48
Azimuth
Unknown
Elevation
Unknown
Doppler factor
Unknown
Orbital elements
Apogee altitude
360.654 km
Perigee altitude
359.34 km
Semi-major axis
6,738.134 km
Eccentricity
0.0001
Inclination
53.1578°
RAAN
4.9733°
Arg. of periapsis
88.3092°
True anomaly
271.79253°
Mean anomaly
271.8037°
Eccentric anomaly
271.79812°
Mean motion
3.92404 °/min
Orbital period
91.74 mins
BSTAR
-0.0000063547
Loading maneuver chart data...
Computing Atmospheric mass density...
Loading historical data...
Loading historical data...
Loading historical data...
Loading historical data...
Loading historical data...
Loading historical data...
Loading historical data...

Documentation

Showing up to 5 results
|